Location: Louisville
(33.0010°N, 82.4110°W)
Time: 23:26:26
(UTC-04:00)

OTV 5 (USA 277) - Visible Passes

Search period start: 23 September 2018 00:00
Search period end: 03 October 2018 00:00
Orbit: 387 x 394 km, 54.5° (Epoch: 08 September)

Date Brightness Start Highest point End Pass type
(mag) Time Alt. Az. Time Alt. Az. Time Alt. Az.
23 Sep ? 06:51:08 10° S 06:53:55 28° SE 06:56:42 10° ENE visible
24 Sep ? 05:56:59 10° SE 05:57:47 11° ESE 05:58:36 10° ESE visible
25 Sep ? 06:33:52 10° SSW 06:37:02 69° SE 06:40:13 10° NE visible
26 Sep ? 05:39:57 21° SSE 05:40:50 23° SE 05:43:27 10° ENE visible
27 Sep ? 06:18:55 28° WSW 06:20:14 48° NW 06:23:20 10° NNE visible
28 Sep ? 05:25:17 29° ENE 05:25:17 29° ENE 05:27:03 10° NE visible
29 Sep ? 06:03:56 22° NNW 06:03:56 22° NNW 06:06:09 10° NNE visible
30 Sep ? 05:10:04 11° NNE 05:10:04 11° NNE 05:10:14 10° NE visible
